TimeCDT,TemperatureF,Dew PointF,Humidity,Sea Level PressureIn,VisibilityMPH,Wind Direction,Wind SpeedMPH,Gust SpeedMPH,PrecipitationIn,Events,Conditions,WindDirDegrees,DateUTC
12:54 AM,42.8,26.6,53,30.17,10.0,SSE,3.5,-,N/A,,Clear,160,2013-05-10 05:54:00
1:54 AM,37.9,27.0,65,30.19,10.0,SSE,5.8,-,N/A,,Clear,150,2013-05-10 06:54:00
2:54 AM,37.0,27.0,67,30.16,10.0,SSE,3.5,-,N/A,,Clear,150,2013-05-10 07:54:00
3:54 AM,41.0,27.0,57,30.13,10.0,South,5.8,-,N/A,,Clear,170,2013-05-10 08:54:00
4:54 AM,39.9,28.0,63,30.10,10.0,South,4.6,-,N/A,,Clear,190,2013-05-10 09:54:00
5:54 AM,37.0,28.9,73,30.06,10.0,South,6.9,-,N/A,,Clear,170,2013-05-10 10:54:00
6:54 AM,45.0,28.0,52,30.03,10.0,SW,10.4,-,N/A,,Clear,220,2013-05-10 11:54:00
7:54 AM,48.2,28.4,46,30.00,10.0,SSW,16.1,26.5,N/A,,Partly Cloudy,200,2013-05-10 12:54:00
8:54 AM,53.1,28.0,38,30.01,10.0,SSW,17.3,25.3,N/A,,Partly Cloudy,210,2013-05-10 13:54:00
9:54 AM,55.0,30.0,38,29.99,10.0,SW,16.1,25.3,N/A,,Partly Cloudy,220,2013-05-10 14:54:00
10:54 AM,63.0,35.1,35,30.00,7.0,West,23.0,34.5,N/A,,Clear,280,2013-05-10 15:54:00
11:54 AM,64.4,30.2,28,30.02,7.0,NW,26.5,35.7,N/A,,Clear,320,2013-05-10 16:54:00
12:54 PM,62.1,35.1,37,30.06,10.0,NNW,25.3,35.7,N/A,,Clear,340,2013-05-10 17:54:00
1:54 PM,62.1,35.1,37,30.09,10.0,NW,26.5,36.8,N/A,,Mostly Cloudy,310,2013-05-10 18:54:00
2:54 PM,63.0,30.0,29,30.12,10.0,NNW,27.6,38.0,N/A,,Partly Cloudy,330,2013-05-10 19:54:00
3:54 PM,62.1,28.9,29,30.12,10.0,NNW,23.0,46.0,N/A,,Scattered Clouds,330,2013-05-10 20:54:00
4:54 PM,62.1,25.0,24,30.14,10.0,NNW,26.5,34.5,N/A,,Clear,330,2013-05-10 21:54:00
5:54 PM,60.1,25.0,26,30.16,10.0,NNW,21.9,32.2,N/A,,Clear,330,2013-05-10 22:54:00
6:54 PM,57.9,17.1,20,30.18,10.0,NW,21.9,35.7,N/A,,Clear,310,2013-05-10 23:54:00
7:54 PM,55.0,19.0,24,30.19,10.0,NNW,17.3,31.1,N/A,,Clear,330,2013-05-11 00:54:00
8:54 PM,51.1,21.0,31,30.22,10.0,NW,18.4,26.5,N/A,,Clear,320,2013-05-11 01:54:00
9:54 PM,46.9,23.0,39,30.25,10.0,NW,9.2,-,N/A,,Mostly Cloudy,310,2013-05-11 02:54:00
10:54 PM,46.0,24.1,42,30.26,10.0,NW,11.5,-,N/A,,Scattered Clouds,310,2013-05-11 03:54:00
11:54 PM,45.0,23.0,42,30.29,10.0,NW,12.7,-,N/A,,Partly Cloudy,320,2013-05-11 04:54:00